Погода в Кимберли

ЮАР     28°43′51″S   24°45′24″E
темп.,
°C
ветер,
м/с
пор.,
м/с
влажн.,
%
обл.,
%
осадки,
мм/ч
давл.,
гПа
погр.,
м
29 июня, ср
ср2923:00+10в22440 0.0 103310
02:00+9вюв22440 0.0 103310
05:00+8в33450 0.0 103211
08:00+8с22480 0.0 103412
11:00+13св12330 0.0 1032468
14:00+15в11280 0.0 10291199
17:00+15юв22330 0.0 102833
20:00+12ююв33370 0.0 103018
30 июня, чт
чт3023:00+10юв22400 0.0 103010
02:00+9юв33430 0.0 103010
05:00+8вюв33440 0.0 102910
08:00+8всв22430 0.0 103011
11:00+14св34270 0.0 1029581
14:00+17ссв45250 0.0 10261294
17:00+16ссв34290 0.0 102555
20:00+12ссв34360 0.0 102722
1 июля, пт
пт123:00+12всв33350 0.0 102715
02:00+9ссв57390 0.0 102877
05:00+8ссв55450 0.0 102860
08:00+8ссв57520 0.0 1029108
11:00+14с68380 0.0 1028566
14:00+17с78370 0.0 10241568
17:00+16с46408 0.0 1023122
20:00+13ссв575125 0.0 102486
2 июля, сб
сб223:00+12с58573 0.0 102594
02:00+10с510584 0.0 1024142
05:00+9ссв611590 0.0 1024159
08:00+9ссв612600 0.0 1025206
11:00+16ссз911370 0.0 1023725
14:00+20сз99300 0.0 10192318
17:00+18ссз710351 0.0 1019274
20:00+14с611490 0.0 1021163
3 июля, вс
вс323:00+12с613570 0.0 1022196
02:00+11с713600 0.0 1021201
05:00+10с613610 0.0 1021187
08:00+10с714600 0.0 1022246
11:00+17ссз913420 0.0 1021704
14:00+21сз1112300 0.0 10171794
17:00+20сз711330 0.0 1017285
20:00+15сз57450 0.0 102081